| time (UTC) | temp C | wind direction | speed KPH | gust KPH | rain 1hr cm | rain 24hr cm | rain mn cm | humidity % | barometer mb |
| 20260506024550 | 13 | 270 | 3.2 | 17.7 | 0.00 | 0.10 | 0.10 | 46 | 1008.9 |
| 20260506023038 | 13 | 294 | 4.8 | 14.5 | 0.00 | 0.10 | 0.10 | 46 | 1008.7 |
| 20260506021537 | 14 | 227 | 1.6 | 9.7 | 0.00 | 0.10 | 0.10 | 44 | 1008.6 |
| 20260506020036 | 14 | 277 | 3.2 | 11.3 | 0.00 | 0.10 | 0.10 | 44 | 1008.3 |
| 20260506014548 | 15 | 273 | 6.4 | 19.3 | 0.00 | 0.10 | 0.10 | 42 | 1008.0 |
| 20260506013036 | 15 | 254 | 3.2 | 11.3 | 0.00 | 0.10 | 0.10 | 40 | 1008.0 |
| 20260506011538 | 15 | 249 | 6.4 | 16.1 | 0.00 | 0.10 | 0.10 | 39 | 1007.9 |
| 20260506010041 | 15 | 175 | 6.4 | 17.7 | 0.00 | 0.10 | 0.10 | 38 | 1007.9 |
| 20260506004546 | 16 | 202 | 8.0 | 24.1 | 0.00 | 0.10 | 0.10 | 35 | 1007.8 |
| 20260506003039 | 17 | 205 | 4.8 | 14.5 | 0.00 | 0.10 | 0.10 | 35 | 1007.5 |
| 20260506001534 | 17 | 215 | 3.2 | 25.7 | 0.03 | 0.10 | 0.10 | 36 | 1007.3 |
| 20260506000033 | 16 | 181 | 11.3 | 33.8 | 0.03 | 0.10 | 0.10 | 35 | 1007.1 |
| 20260505234533 | 16 | 215 | 8.0 | 29.0 | 0.03 | 0.10 | 0.10 | 40 | 1007.1 |
| 20260505233031 | 16 | 201 | 9.7 | 38.6 | 0.03 | 0.10 | 0.10 | 41 | 1007.2 |
| 20260505231530 | 17 | 200 | 11.3 | 27.4 | 0.00 | 0.08 | 0.08 | 40 | 1007.2 |
| 20260505230039 | 16 | 196 | 11.3 | 25.7 | 0.00 | 0.08 | 0.08 | 44 | 1007.3 |
| 20260505224533 | 16 | 202 | 6.4 | 19.3 | 0.00 | 0.08 | 0.08 | 45 | 1007.5 |
| 20260505223025 | 16 | 219 | 9.7 | 22.5 | 0.00 | 0.08 | 0.08 | 46 | 1007.5 |
| 20260505221524 | 17 | 198 | 4.8 | 17.7 | 0.00 | 0.08 | 0.08 | 49 | 1007.6 |
| 20260505220022 | 16 | 209 | 6.4 | 20.9 | 0.00 | 0.08 | 0.08 | 52 | 1007.8 |
| 20260505214523 | 17 | 246 | 8.0 | 17.7 | 0.00 | 0.08 | 0.08 | 54 | 1008.0 |
| 20260505213022 | 15 | 203 | 6.4 | 19.3 | 0.00 | 0.08 | 0.08 | 61 | 1008.3 |
| 20260505211523 | 14 | 200 | 6.4 | 16.1 | 0.00 | 0.08 | 0.08 | 64 | 1008.5 |
| 20260505210022 | 14 | 239 | 4.8 | 27.4 | 0.00 | 0.08 | 0.08 | 63 | 1008.5 |
| 20260505204522 | 16 | 192 | 3.2 | 14.5 | 0.00 | 0.08 | 0.08 | 52 | 1008.3 |
| 20260505203026 | 17 | 219 | 3.2 | 20.9 | 0.00 | 0.08 | 0.08 | 50 | 1008.6 |
| 20260505201519 | 17 | 222 | 3.2 | 29.0 | 0.00 | 0.08 | 0.08 | 49 | 1008.7 |
| 20260505200017 | 17 | 341 | 3.2 | 17.7 | 0.00 | 0.08 | 0.08 | 52 | 1008.9 |
| 20260505194516 | 17 | 200 | 3.2 | 19.3 | 0.00 | 0.08 | 0.08 | 52 | 1008.9 |
| 20260505193011 | 16 | 297 | 3.2 | 22.5 | 0.00 | 0.08 | 0.08 | 57 | 1009.0 |
| 20260505191510 | 16 | 258 | 4.8 | 12.9 | 0.00 | 0.08 | 0.08 | 58 | 1009.1 |
| 20260505190007 | 15 | 237 | 3.2 | 11.3 | 0.00 | 0.08 | 0.08 | 66 | 1009.3 |
| 20260505184510 | 13 | 264 | 1.6 | 22.5 | 0.00 | 0.08 | 0.08 | 65 | 1009.8 |
| 20260505183007 | 14 | 342 | 6.4 | 19.3 | 0.00 | 0.08 | 0.08 | 64 | 1009.6 |
| 20260505181504 | 14 | 273 | 4.8 | 14.5 | 0.00 | 0.08 | 0.08 | 69 | 1009.7 |
| 20260505180107 | 13 | 280 | 3.2 | 16.1 | 0.00 | 0.08 | 0.08 | 71 | 1009.8 |
| 20260505180000 | 13 | 207 | 1.6 | 16.1 | 0.00 | 0.08 | 0.08 | 71 | 1009.8 |
| 20260505174559 | 12 | 27 | 1.6 | 11.3 | 0.00 | 0.08 | 0.08 | 71 | 1009.8 |
| 20260505173100 | 12 | 306 | 1.6 | 9.7 | 0.00 | 0.08 | 0.08 | 72 | 1009.6 |
| 20260505171558 | 12 | 290 | 3.2 | 16.1 | 0.00 | 0.08 | 0.08 | 74 | 1009.5 |
| 20260505170054 | 12 | 176 | 4.8 | 14.5 | 0.00 | 0.08 | 0.08 | 76 | 1009.4 |
| 20260505164554 | 11 | 253 | 1.6 | 17.7 | 0.00 | 0.08 | 0.08 | 78 | 1009.3 |
| 20260505163052 | 10 | 205 | 0.0 | 14.5 | 0.00 | 0.08 | 0.08 | 80 | 1009.1 |
| 20260505161551 | 10 | 224 | 0.0 | 6.4 | 0.00 | 0.08 | 0.08 | 82 | 1009.1 |
| 20260505153101 | 9 | 300 | 3.2 | 9.7 | 0.03 | 0.08 | 0.08 | 85 | 1009.0 |
| 20260505151549 | 8 | 281 | 0.0 | 4.8 | 0.03 | 0.08 | 0.08 | 84 | 1008.9 |
| 20260505124544 | 7 | 30 | 4.8 | 14.5 | 0.05 | 0.05 | 0.05 | 81 | 1008.5 |
| 20260505123052 | 7 | 290 | 4.8 | 14.5 | 0.05 | 0.05 | 0.05 | 79 | 1009.3 |
| 20260505121539 | 7 | 300 | 4.8 | 17.7 | 0.03 | 0.03 | 0.03 | 78 | 1009.6 |
| 20260505120043 | 8 | 279 | 1.6 | 25.7 | 0.00 | 0.00 | 0.00 | 75 | 1009.1 |
| 20260505114533 | 9 | 300 | 8.0 | 37.0 | 0.00 | 0.00 | 0.00 | 71 | 1008.9 |
| 20260505113030 | 10 | 286 | 14.5 | 27.4 | 0.00 | 0.00 | 0.00 | 69 | 1008.8 |
| 20260505111532 | 10 | 302 | 6.4 | 22.5 | 0.00 | 0.00 | 0.00 | 75 | 1008.5 |
| 20260505101529 | 9 | 292 | 4.8 | 14.5 | 0.00 | 0.00 | 0.00 | 77 | 1008.5 |
| 20260505100029 | 9 | 319 | 3.2 | 8.0 | 0.00 | 0.00 | 0.00 | 77 | 1008.3 |
| 20260505094521 | 8 | 296 | 0.0 | 4.8 | 0.00 | 0.00 | 0.00 | 77 | 1008.9 |
| 20260505093020 | 8 | 269 | 0.0 | 12.9 | 0.00 | 0.00 | 0.00 | 76 | 1008.4 |
| 20260505091520 | 8 | 336 | 1.6 | 4.8 | 0.00 | 0.00 | 0.00 | 76 | 1008.6 |
| 20260505090016 | 9 | 309 | 0.0 | 0.0 | 0.00 | 0.00 | 0.00 | 75 | 1008.5 |
| 20260505084515 | 9 | 309 | 0.0 | 4.8 | 0.00 | 0.00 | 0.00 | 74 | 1008.5 |
| 20260505083018 | 9 | 323 | 0.0 | 4.8 | 0.00 | 0.00 | 0.00 | 74 | 1008.6 |
| 20260505081512 | 9 | 321 | 0.0 | 4.8 | 0.00 | 0.00 | 0.00 | 73 | 1008.9 |
| 20260505080017 | 10 | 313 | 1.6 | 6.4 | 0.00 | 0.00 | 0.00 | 72 | 1009.1 |
| 20260505074508 | 10 | 13 | 0.0 | 0.0 | 0.00 | 0.00 | 0.00 | 70 | 1009.3 |
| 20260505073059 | 10 | 13 | 0.0 | 3.2 | 0.00 | 0.00 | 0.00 | 70 | 1009.2 |
| 20260505071505 | 10 | 19 | 0.0 | 3.2 | 0.00 | 0.00 | 0.00 | 69 | 1009.1 |
| 20260505070004 | 10 | 321 | 0.0 | 4.8 | 0.00 | 0.00 | 0.00 | 68 | 1008.9 |
| 20260505064502 | 10 | 278 | 0.0 | 4.8 | 0.00 | 0.00 | 0.00 | 67 | 1009.2 |
| 20260505063101 | 10 | 278 | 0.0 | 6.4 | 0.00 | 0.00 | 0.00 | 67 | 1009.3 |
| 20260505061559 | 11 | 309 | 0.0 | 8.0 | 0.00 | 0.00 | 0.00 | 67 | 1008.8 |
| 20260505060100 | 11 | 329 | 1.6 | 6.4 | 0.00 | 0.00 | 0.00 | 66 | 1008.4 |
| 20260505054553 | 11 | 319 | 1.6 | 6.4 | 0.00 | 0.00 | 0.00 | 66 | 1008.9 |
| 20260505053052 | 11 | 360 | 1.6 | 6.4 | 0.00 | 0.00 | 0.00 | 65 | 1009.6 |
| 20260505051551 | 11 | 11 | 1.6 | 12.9 | 0.00 | 0.00 | 0.00 | 65 | 1009.8 |
| 20260505041554 | 12 | 325 | 9.7 | 20.9 | 0.00 | 0.00 | 0.00 | 61 | 1009.5 |
| 20260505040049 | 12 | 333 | 9.7 | 19.3 | 0.00 | 0.00 | 0.00 | 59 | 1009.7 |
| 20260505034548 | 12 | 319 | 8.0 | 25.7 | 0.00 | 0.00 | 0.00 | 57 | 1009.8 |
| 20260505033048 | 13 | 324 | 11.3 | 24.1 | 0.00 | 0.00 | 0.00 | 56 | 1009.7 |
| 20260505031547 | 13 | 304 | 9.7 | 22.5 | 0.00 | 0.00 | 0.00 | 54 | 1009.6 |
| 20260505030105 | 13 | 319 | 12.9 | 32.2 | 0.00 | 0.00 | 0.00 | 49 | 1009.1 |